Flag for Switzerland Weather past 2 weeks in Bern, Bern, Switzerland

Now
63 °F

Light rain. Broken clouds.


Feels Like: 63 °F
Forecast: 56 / 76 °F
Wind: 5 mph from Southeast

Location: Bern / Belp

Current Time: Jul 26, 2014 at 8:05:33 PM

Latest Report: Jul 26, 2014 at 7:20 PM


Visibility: N/A

Pressure: 30.01 "Hg

Humidity: 94%

Dew point: 61 °F

Location of BernLocation

Historic Weather in Bern — Graph

°F

Bern temperature yesterday

Maximum temperature yesterday: 81 °F (at 3:20 PM)
Minimum temperature yesterday: 54 °F (at 6:20 AM)
Average temperature yesterday: 66 °F

Past Weeks' High & Low Weather Summary

 TemperatureHumidityPressure
High88 °F (Jul 18, 2:50 PM)100% (Jul 12, 12:20 AM)30.21 "Hg (Jul 12, 12:20 AM)
Low52 °F (Jul 16, 5:20 AM)29% (Jul 17, 6:20 PM)29.86 "Hg (Jul 19, 11:50 PM)
Average66 °F79%30.01 "Hg
* Reported Jul 11 6:20 PM — Jul 26 6:50 PM, Bern, Weather by CustomWeather, © 2014

Note: Actual official high and low records may vary slightly from our data, if they occured in-between our weather recording intervals... More about our weather records

Advertising

Bern weather history for previous 24 hours

 ConditionsComfort  
Time TempWeatherWind HumidityBarometerVisibility
6:50 PM
Jul 26
63 °FLight rain. Broken clouds.1 mph94%30.01 "HgN/A
6:20 PM63 °FLots of rain. Broken clouds.6 mph88%30.01 "Hg4 mi
5:50 PM66 °FLight rain. Broken clouds.6 mph83%30.01 "HgN/A
5:20 PM68 °FBroken clouds.6 mph78%29.98 "HgN/A
4:50 PM68 °FBroken clouds.2 mph73%29.98 "HgN/A
4:20 PM66 °FBroken clouds.No wind78%29.98 "HgN/A
3:50 PM66 °FBroken clouds.3 mph78%29.98 "HgN/A
3:20 PM66 °FBroken clouds.2 mph83%29.98 "HgN/A
2:50 PM66 °FLight rain. Broken clouds.5 mph88%29.98 "Hg5 mi
2:20 PM64 °FLight rain. Broken clouds.2 mph83%30.01 "Hg4 mi
1:50 PM63 °FLight rain. Broken clouds.2 mph88%30.01 "Hg4 mi
1:20 PM63 °FLight rain. Broken clouds.6 mph88%30.01 "Hg4 mi
12:50 PM63 °FLight rain. Broken clouds.7 mph88%30.01 "Hg4 mi
12:20 PM63 °FLight rain. Broken clouds.5 mph88%30.01 "HgN/A
11:50 AM63 °FLight rain. Broken clouds.2 mph88%29.98 "Hg3 mi
11:20 AM61 °FRain. Broken clouds.2 mph100%29.98 "Hg3 mi
10:50 AM61 °FRain. Broken clouds.2 mph94%29.98 "Hg3 mi
10:20 AM61 °FRain. Partly sunny.3 mph94%29.98 "Hg3 mi
9:50 AM61 °FHeavy rain. Fog.5 mph94%29.98 "Hg2 mi
9:20 AM61 °FLight rain. Partly sunny.3 mph94%29.98 "Hg3 mi
8:50 AM61 °FRain. Partly sunny.No wind94%29.98 "Hg4 mi
8:20 AM61 °FLight rain. Partly sunny.1 mph100%29.98 "Hg5 mi
7:50 AM61 °FLight rain. Cloudy.2 mph94%29.98 "HgN/A
7:20 AM61 °FLight rain. Overcast.2 mph94%29.95 "HgN/A
6:50 AM61 °FLight rain. Partly cloudy.2 mph88%29.95 "HgN/A
6:20 AM61 °FPassing clouds.5 mph88%29.95 "HgN/A
5:50 AM61 °FPartly cloudy.3 mph88%29.95 "HgN/A
5:20 AM61 °FMostly cloudy.3 mph94%29.95 "HgN/A
4:50 AM61 °FPartly cloudy.2 mph94%29.95 "HgN/A
4:20 AM61 °FPartly cloudy.2 mph88%29.92 "HgN/A
3:50 AM61 °FPassing clouds.2 mph88%29.92 "HgN/A
3:20 AM61 °FPassing clouds.2 mph94%29.92 "HgN/A
2:50 AM61 °FPassing clouds.5 mph88%29.92 "HgN/A
2:20 AM61 °FCool.6 mph94%29.92 "HgN/A
1:50 AM61 °FPartly cloudy.8 mph94%29.95 "HgN/A
1:20 AM61 °FPassing clouds.5 mph88%29.95 "HgN/A
12:50 AM61 °FPassing clouds.2 mph88%29.95 "HgN/A
12:20 AM61 °FOvercast.5 mph94%29.95 "HgN/A
11:50 PM
Jul 25
61 °FPassing clouds.7 mph88%29.95 "HgN/A
11:20 PM61 °FClear.5 mph88%29.95 "HgN/A
10:50 PM63 °FPassing clouds.7 mph88%29.95 "HgN/A
10:20 PM63 °FPassing clouds.9 mph88%29.92 "HgN/A
9:50 PM64 °FPartly sunny.10 mph83%29.95 "HgN/A
9:20 PM64 °FPartly sunny.10 mph83%29.92 "HgN/A
8:50 PM66 °FThundershowers. Broken clouds.8 mph78%29.92 "HgN/A
8:20 PM72 °FThundershowers. Broken clouds.3 mph50%29.92 "HgN/A
Weather by CustomWeather, © 2014

See weather overviewHow to use our weather pages